www.pogodaiklimat.ru

Погода и климат >> Архив погоды >> Франция >> Бордо


АРХИВ ПОГОДЫ в Бордо

Время (UTC), дата Ветер
(напр.,м/с)
 
Видим.   Явления Облачность Т
(С)
Тd
(С)
f
(%)
Тe
(С)
Тes
(С)
Комфортность P
(гПа)
Po
(гПа)
Тmin
(С)
Tmax
(С)
R
(мм)
R24
(мм)
S
(см)
10 14.04 С 1 13 км 10/3 1000 м
[]
+8.9 +2.0 62 +9 +13 прохладно 1019.7 1013.8 0.2
11 14.04 С 1 17 км 10/10 1500 м
[]
+10.7 +2.5 57 +12 +12 по сезону 1019.2 1013.4
12 14.04 СВ 2
{4}
19 км 9/9 1500 м
[]
+12.7 -0.2 41 +13 +14 по сезону 1018.7 1012.9 0.2 0
13 14.04 СВ 1 23 км 10/10 1500 м
[]
+14.1 -2.4 32 +16 +16 тепло 1018.8 1013.0
14 14.04 СВ 2 30 км н/о +15.2 -0.2 35 +16 +16 тепло 1018.5 1012.7
15 14.04 СВ 3
{6}
35 км н/о +15.7 +0.7 36 +16 +16 тепло 1017.8 1012.1 0
16 14.04 В 2 35 км н/о +15.8 +0.7 36 +16 +16 тепло 1017.4 1011.7
17 14.04 СВ 2 45 км н/о +15.4 0.0 35 +15 +15 тепло 1017.4 1011.7
18 14.04 СВ 3
{6}
55 км н/о +14.9 -0.8 34 +14 +14 по сезону 1017.5 1011.7 +7.4 +16.0 0.4 0
19 14.04 СВ 2 60 км н/о +13.5 -0.9 37 +14 +14 тепло 1018.0 1012.2
20 14.04 СВ 2 45 км н/о +12.7 -2.0 36 +12 +12 тепло 1018.3 1012.5
21 14.04 СВ 3
{10}
19 км н/о +11.6 -1.2 41 +10 +10 по сезону 1018.5 1012.7 0
22 14.04 СВ 2 19 км н/о +10.9 -1.5 42 +11 +11 тепло 1018.5 1012.7
23 14.04 В 2 35 км н/о +10.6 -1.8 42 +10 +10 тепло 1018.2 1012.4
00 15.04 В 3
{5}
50 км н/о +10.2 -2.2 42 +9 +9 по сезону 1018.1 1012.2 0
01 15.04 В 1 35 км н/о +9.4 -2.6 43 +9 +9 тепло 1017.6 1011.7
02 15.04 В 2 40 км н/о +9.0 -2.3 45 +8 +8 тепло 1017.1 1011.2
03 15.04 В 4
{6}
40 км н/о +8.6 -2.4 46 +6 +6 по сезону 1016.4 1010.5 0
04 15.04 В 3 40 км н/о +8.5 -2.5 46 +6 +6 тепло 1015.1 1009.2
05 15.04 В 2 40 км н/о +7.9 -2.2 49 +6 +6 по сезону 1014.9 1009.0
06 15.04 В 4
{7}
40 км н/о +7.9 -1.6 51 +5 +5 по сезону 1015.0 1009.1 +7.7 +14.9 0
07 15.04 В 2 40 км н/о +8.9 -1.5 48 +8 +8 по сезону 1014.8 1008.9
08 15.04 В 4 17 км н/о +11.1 -0.7 44 +9 +9 по сезону 1013.7 1007.9
09 15.04 В 7
{10}
35 км 9/0
[]
+13.2 -1.2 37 +11 +13 по сезону 1013.1 1007.3 0
10 15.04 В 4 35 км 10/10
[]
+14.1 -0.8 36 +13 +13 по сезону 1011.9 1006.2
11 15.04 ЮВ 4 40 км 9/9
[]
+15.0 +0.4 37 +14 +15 по сезону 1011.5 1005.8
12 15.04 ЮВ 9
{12}
27 км 9/0
[]
+16.0 +1.7 38 +14 +15 по сезону 1010.6 1004.9 0
13 15.04 В 4 55 км 9/9
[]
+17.5 +2.6 37 +17 +18 тепло 1009.6 1003.9
14 15.04 ЮВ 5 50 км 9/9
[]
+18.6 +2.4 34 +19 +19 тепло 1008.8 1003.2
15 15.04 ЮВ 7
{12}
45 км 8/0
[]
+18.6 +3.6 37 +18 +19 тепло 1008.5 1002.9 0
16 15.04 В 3 30 км 10/1 600 м
[]
+18.1 +6.3 46 +18 +21 тепло 1008.5 1002.9 0.0
17 15.04 ЮВ 4 45 км 10/1 1000 м
[]
+17.9 +6.1 46 +18 +19 тепло 1007.7 1002.1 0.0
18 15.04 ЮЗ 8
{17}
10 км дождь 10/10 1500 м
[]
+15.9 +10.6 71 +14 +14 по сезону 1011.9 1006.2 +7.9 +18.9 0.2 0
19 15.04 штиль 0 1700 м сильн. дождь 10/10 2000 м
[]
+14.1 +13.1 94 +14 +14 тепло 1012.1 1006.4 5
20 15.04 ЮВ 2 9000 м слаб. дождь 10/10 1500 м
[]
+13.8 +13.3 97 +13 +13 тепло 1012.0 1006.3 4
21 15.04 ЮЗ 4
{6}
2500 м дождь 10/10 100 м
[]
+13.7 +13.2 97 +12 +12 по сезону 1013.8 1008.1 9 0
22 15.04 З 2 17 км 10/10 100 м
[]
+13.0 +12.4 96 +12 +12 тепло 1014.9 1009.1 0.4
23 15.04 З 3 18 км 10/10 100 м
[]
+13.1 +12.2 94 +12 +12 тепло 1015.6 1009.8
00 16.04 З 5
{9}
19 км 10/10 200 м
[]
+13.0 +11.9 93 +11 +11 тепло 1016.0 1010.2 0.4 0
01 16.04 З 3 11 км 10/10 300 м
[]
+12.7 +11.4 92 +11 +11 тепло 1016.2 1010.4
02 16.04 З 3 15 км 10/10 300 м
[]
+12.3 +10.9 91 +11 +11 тепло 1016.7 1010.9 0.0
03 16.04 З 4
{7}
14 км 10/10 300 м
[]
+12.0 +10.6 91 +10 +10 тепло 1017.2 1011.4 0.0 0
04 16.04 З 2 5000 м дождь 9/9 300 м
[]
+11.5 +10.4 93 +10 +10 тепло 1017.6 1011.8 0.0
05 16.04 З 3 16 км 10/10 300 м
[]
+11.2 +9.8 91 +9 +9 тепло 1018.2 1012.4 0.0
06 16.04 ЮЗ 2
{6}
17 км 10/10 300 м
[]
+10.9 +9.8 93 +10 +10 тепло 1018.9 1013.1 +10.8 +15.7 0.0 0
07 16.04 З 2 18 км н/о +11.9 +10.0 88 +11 +11 тепло 1019.6 1013.8
08 16.04 З 2 22 км 8/8 300 м
[]
+13.6 +9.8 78 +13 +14 тепло 1019.8 1014.0
09 16.04 З 5
{8}
40 км н/о +14.6 +8.8 68 +13 +13 тепло 1020.3 1014.5 0
10 16.04 СЗ 2 45 км н/о +15.1 +8.1 63 +15 +15 тепло 1020.4 1014.6
11 16.04 СЗ 2 35 км 9/9 1000 м
[]
+16.2 +7.7 57 +17 +18 тепло 1020.1 1014.4
12 16.04 З 3
{6}
40 км н/о +17.7 +8.3 54 +18 +18 тепло 1020.0 1014.3 0
13 16.04 ЮЗ 1 50 км н/о +19.0 +7.7 48 +21 +21 комфорт 1019.6 1013.9
14 16.04 ЮВ 1 40 км 8/1 1000 м
[]
+17.6 +6.5 48 +19 +28 тепло 1019.3 1013.6
15 16.04 СЗ 1
{5}
40 км н/о +19.6 +6.3 42 +21 +21 комфорт 1018.8 1013.1 0
16 16.04 СВ 1 50 км 10/10 1500 м
[]
+19.1 +6.9 45 +21 +21 комфорт 1018.5 1012.8
17 16.04 В 2 50 км н/о +18.3 +7.4 49 +19 +19 тепло 1018.3 1012.6
18 16.04 В 4
{6}
60 км н/о +17.6 +6.1 47 +17 +17 тепло 1018.1 1012.4 +10.9 +20.3 0
19 16.04 СВ 2 55 км н/о +16.0 +7.5 57 +16 +16 тепло 1018.2 1012.5
20 16.04 СВ 2 50 км 10/10
[]
+14.3 +9.5 73 +14 +14 тепло 1018.6 1012.8
21 16.04 В 2
{4}
40 км 9/0
[]
+13.7 +9.1 74 +13 +13 тепло 1018.4 1012.6 0
22 16.04 В 1 45 км н/о +12.5 +8.0 74 +13 +13 тепло 1018.3 1012.5
23 16.04 В 1 50 км н/о +12.3 +7.2 71 +12 +12 тепло 1018.2 1012.4
00 17.04 В 3
{4}
55 км н/о +12.3 +6.8 69 +11 +11 тепло 1017.6 1011.8 0
01 17.04 В 2 60 км н/о +12.2 +6.9 70 +12 +12 тепло 1017.0 1011.2
02 17.04 В 2 60 км н/о +11.8 +6.9 72 +11 +11 тепло 1016.2 1010.4
03 17.04 В 4
{6}
60 км 9/0
[]
+11.5 +7.6 77 +9 +9 по сезону 1015.6 1009.8 0
04 17.04 В 3 55 км 9/9
[]
+11.7 +8.2 79 +10 +10 тепло 1015.2 1009.4
05 17.04 В 3 55 км 8/8
[]
+11.4 +8.3 81 +10 +10 тепло 1014.8 1009.0
06 17.04 В 6
{8}
50 км н/о +11.4 +8.3 81 +9 +9 тепло 1014.7 1008.9 +11.2 +17.6 0
07 17.04 В 3 35 км н/о +12.3 +8.2 76 +11 +11 тепло 1014.6 1008.8
08 17.04 ЮВ 4 35 км н/о +13.6 +8.0 69 +12 +12 тепло 1014.5 1008.7
09 17.04 ЮВ 8
{12}
35 км н/о +15.7 +8.9 64 +14 +14 тепло 1014.1 1008.4 0
10 17.04 В 4 45 км 10/10
[]
+15.3 +8.5 64 +14 +14 по сезону 1013.8 1008.1
11 17.04 ЮВ 4 40 км 9/9
[]
+16.2 +9.1 63 +16 +17 тепло 1013.8 1008.1
12 17.04 ЮВ 7
{10}
40 км 9/0
[]
+16.8 +10.2 65 +16 +18 по сезону 1013.5 1007.8 0
13 17.04 В 4 25 км 9/9
[]
+17.8 +10.9 64 +18 +19 тепло 1013.0 1007.3
14 17.04 ЮВ 4 35 км н/о +18.5 +10.8 61 +19 +19 тепло 1012.6 1007.0
15 17.04 В 9
{13}
35 км н/о +18.7 +10.0 57 +18 +18 тепло 1012.0 1006.4 0
16 17.04 ЮВ 4 35 км н/о +18.5 +10.8 61 +19 +19 тепло 1011.8 1006.2
17 17.04 ЮВ 4 45 км н/о +18.2 +10.6 61 +18 +18 тепло 1011.7 1006.1
18 17.04 В 5
{11}
55 км н/о +17.7 +10.6 63 +17 +17 тепло 1011.7 1006.0 +11.4 +19.0 0
19 17.04 ЮВ 4 60 км н/о +17.2 +9.1 59 +17 +17 тепло 1011.7 1006.0
20 17.04 ЮВ 4 60 км н/о +16.6 +8.8 60 +16 +16 тепло 1012.0 1006.3
21 17.04 ЮВ 5
{9}
60 км н/о +16.1 +8.3 60 +15 +15 тепло 1012.7 1007.0 0
22 17.04 ЮВ 3 60 км н/о +15.4 +8.4 63 +15 +15 тепло 1012.8 1007.1
23 17.04 ЮВ 4 60 км 10/10
[]
+14.8 +8.3 65 +14 +14 тепло 1013.1 1007.4
00 18.04 В 7
{10}
60 км н/о +14.0 +8.0 67 +12 +12 тепло 1013.1 1007.4 0
01 18.04 ЮВ 2 55 км 9/9
[]
+13.5 +7.9 69 +13 +13 тепло 1013.5 1007.7
02 18.04 ЮВ 2 55 км н/о +12.5 +8.2 75 +12 +12 тепло 1013.6 1007.8
03 18.04 В 3
{6}
50 км 8/0
[]
+12.2 +8.3 77 +11 +11 тепло 1013.0 1007.2 0
04 18.04 В 2 45 км 10/10
[]
+12.0 +8.3 78 +11 +11 тепло 1013.1 1007.3
05 18.04 В 2 40 км 10/10
[]
+11.8 +8.5 80 +11 +11 тепло 1013.6 1007.8
06 18.04 В 4
{7}
35 км н/о +11.9 +8.7 81 +10 +10 тепло 1014.3 1008.5 +11.7 +17.8 0
07 18.04 В 2 30 км н/о +12.6 +9.2 80 +12 +12 тепло 1014.6 1008.8
08 18.04 ЮВ 3 30 км н/о +13.8 +9.2 74 +13 +13 тепло 1014.9 1009.1
09 18.04 ЮВ 7
{10}
40 км н/о +15.0 +9.6 70 +13 +13 тепло 1015.2 1009.5 0
10 18.04 ЮВ 3 35 км н/о +15.7 +9.6 67 +15 +15 по сезону 1015.6 1009.9
11 18.04 ЮВ 3 40 км н/о +16.7 +10.1 65 +17 +17 тепло 1015.9 1010.2
12 18.04 ЮВ 3
{7}
25 км н/о +18.8 +10.6 59 +20 +20 тепло 1016.1 1010.4 0
13 18.04 В 1 30 км н/о +20.1 +11.0 56 +23 +23 комфорт 1016.1 1010.5
14 18.04 ЮВ 1 19 км н/о +21.1 +10.9 52 +23 +23 комфорт 1015.8 1010.2
15 18.04 С 2
{7}
45 км н/о +20.6 +9.5 49 +23 +23 комфорт 1015.2 1009.6 0
16 18.04 В 2 50 км н/о +20.9 +9.8 49 +23 +23 комфорт 1015.1 1009.5
17 18.04 ЮВ 2 55 км н/о +20.1 +9.3 50 +22 +22 комфорт 1015.3 1009.7
18 18.04 ЮВ 2
{4}
55 км 9/0
[]
+19.6 +9.8 53 +21 +22 комфорт 1015.7 1010.1 +11.8 +21.3 0
19 18.04 ЮВ 2 60 км 9/9
[]
+18.4 +7.2 48 +19 +19 тепло 1016.4 1010.7
20 18.04 В 1 55 км 8/8
[]
+17.2 +7.8 54 +18 +18 тепло 1017.0 1011.3
21 18.04 В 3
{5}
55 км 8/0
[]
+17.1 +7.2 52 +17 +17 тепло 1017.5 1011.8 0
22 18.04 В 3 60 км 10/10
[]
+17.2 +6.1 48 +17 +17 тепло 1017.8 1012.1
23 18.04 В 2 60 км 10/10
[]
+16.9 +5.5 47 +17 +17 тепло 1018.1 1012.4
00 19.04 В 4
{9}
60 км 9/0
[]
+17.0 +4.3 43 +17 +17 тепло 1018.1 1012.4 0
01 19.04 СВ 2 55 км 10/10
[]
+16.0 +5.9 51 +16 +16 тепло 1018.1 1012.4
02 19.04 В 2 50 км 10/10
[]
+16.0 +5.0 48 +16 +16 тепло 1018.2 1012.5
03 19.04 В 4
{7}
50 км 10/0
[]
+15.4 +4.4 48 +15 +15 тепло 1018.5 1012.8 0
04 19.04 В 2 50 км 9/9
[]
+14.9 +4.3 49 +15 +15 тепло 1018.5 1012.7
05 19.04 В 2 45 км 9/9
[]
+14.5 +3.6 48 +14 +14 тепло 1018.7 1012.9
06 19.04 В 4
{6}
40 км 10/0
[]
+14.4 +3.8 49 +13 +13 тепло 1019.4 1013.6 +14.0 +19.6 0
07 19.04 В 3 40 км н/о +15.5 +4.2 47 +15 +15 тепло 1020.3 1014.5
08 19.04 В 3 28 км н/о +16.8 +4.8 45 +17 +17 тепло 1020.6 1014.9
09 19.04 В 7
{11}
45 км н/о +18.9 +6.0 43 +19 +19 тепло 1020.9 1015.2 0
10 19.04 В 5 30 км н/о +20.4 +6.7 41 +21 +21 комфорт 1021.4 1015.7
11 19.04 ЮВ 6 19 км н/о +21.7 +6.4 37 +22 +22 комфорт 1021.5 1015.9
12 19.04 ЮВ 11
{15}
19 км н/о +22.9 +6.6 35 +24 +24 комфорт 1021.5 1015.9 0
13 19.04 В 5 22 км н/о +23.5 +5.8 32 +24 +24 комфорт 1021.8 1016.2
14 19.04 ЮВ 4 25 км н/о +23.8 +5.6 31 +24 +24 комфорт 1021.8 1016.2
15 19.04 ЮВ 8-15
{15}
26 км 8/0
[]
+24.2 +6.0 31 +24 +25 комфорт 1021.7 1016.1 0
16 19.04 ЮВ 3 45 км 8/8
[]
+23.8 +7.0 34 +24 +25 комфорт 1021.9 1016.3
17 19.04 ЮВ 3 35 км 9/1 300 м
[]
+23.0 +6.3 34 +24 +25 комфорт 1022.3 1016.7
18 19.04 В 3
{9}
50 км н/о +22.1 +7.1 38 +23 +23 комфорт 1022.6 1017.0 +14.4 +24.6 0
19 19.04 В 2 45 км н/о +20.4 +6.7 41 +22 +22 комфорт 1023.5 1017.8
20 19.04 В 2 40 км н/о +18.9 +7.0 46 +20 +20 тепло 1024.2 1018.5
21 19.04 ЮВ 2
{4}
40 км н/о +17.1 +8.0 55 +18 +18 тепло 1024.7 1019.0 0
22 19.04 В 1 30 км н/о +14.6 +7.9 64 +16 +16 тепло 1025.1 1019.3
23 19.04 ЮВ 2 35 км н/о +13.4 +8.2 71 +13 +13 тепло 1025.3 1019.5
00 20.04 В 2
{4}
35 км н/о +14.1 +6.0 58 +14 +14 тепло 1025.2 1019.4 0
01 20.04 СВ 1 40 км н/о +12.0 +7.3 73 +13 +13 тепло 1024.7 1018.9
02 20.04 СВ 1 30 км н/о +10.4 +6.3 76 +11 +11 тепло 1024.4 1018.5
03 20.04 СВ 2
{3}
26 км н/о +11.4 +7.1 75 +10 +10 тепло 1024.3 1018.4 0
04 20.04 СВ 2 27 км н/о +11.3 +6.8 74 +11 +11 тепло 1024.3 1018.4
05 20.04 СВ 2 23 км н/о +10.2 +6.9 80 +9 +9 тепло 1024.4 1018.5
06 20.04 СВ 2
{4}
17 км н/о +11.3 +7.0 75 +10 +10 тепло 1024.7 1018.8 +10.0 +22.0 0
07 20.04 СВ 1 30 км н/о +13.8 +5.7 58 +14 +14 тепло 1024.5 1018.7
08 20.04 В 1 30 км н/о +16.5 +5.7 49 +17 +17 тепло 1024.3 1018.5
09 20.04 В 3
{5}
35 км н/о +19.0 +5.1 40 +20 +20 тепло 1023.9 1018.2 0
10 20.04 В 2 17 км 8/8
[]
+21.2 +4.7 34 +22 +24 комфорт 1023.6 1017.9
11 20.04 СВ 2 30 км н/о +22.1 +5.1 33 +22 +22 комфорт 1023.0 1017.4
12 20.04 СВ 4
{9}
40 км н/о +22.7 +4.2 30 +23 +23 комфорт 1022.2 1016.6 0
13 20.04 СВ 3 19 км 9/9
[]
+22.9 +5.3 32 +23 +25 комфорт 1021.8 1016.2
14 20.04 В 3 40 км н/о +24.0 +6.3 32 +24 +24 комфорт 1021.1 1015.5
15 20.04 СВ 5
{9}
50 км 9/0
[]
+23.2 +5.6 32 +24 +26 комфорт 1020.5 1014.9 0
16 20.04 СВ 3 35 км н/о +23.9 +5.3 30 +24 +24 комфорт 1019.9 1014.3
17 20.04 В 2 45 км н/о +23.2 +5.1 31 +23 +23 комфорт 1019.7 1014.1
18 20.04 СВ 5
{9}
29 км н/о +22.9 +5.3 32 +23 +23 комфорт 1019.4 1013.8 +11.3 +24.6 0
19 20.04 СВ 2 55 км 10/10
[]
+21.4 +6.1 37 +22 +22 комфорт 1019.8 1014.2
20 20.04 СВ 2 55 км 10/10
[]
+20.5 +6.1 39 +22 +22 комфорт 1020.2 1014.5
21 20.04 ЮВ 7
{13}
29 км слаб. дождь 10/0 2000 м
[]
+17.6 +9.0 57 +17 +17 тепло 1021.2 1015.5 0.0 0
22 20.04 В 1 55 км н/о +15.8 +9.0 64 +17 +17 тепло 1020.6 1014.9 0.0
23 20.04 В 1 50 км н/о +14.3 +9.3 72 +15 +15 тепло 1020.2 1014.4
00 21.04 С 1
{5}
45 км 8/0
[]
+14.1 +9.5 74 +14 +14 тепло 1020.3 1014.5 0.0 0
01 21.04 В 1 40 км 10/10
[]
+14.6 +9.4 71 +15 +15 тепло 1019.6 1013.8
02 21.04 СВ 1 35 км 9/9
[]
+14.5 +9.3 71 +15 +15 тепло 1019.1 1013.3
03 21.04 В 4
{6}
40 км 10/0
[]
+14.7 +9.3 70 +14 +14 тепло 1019.3 1013.5 0
04 21.04 ЮВ 2 45 км 10/10
[]
+14.3 +7.8 65 +14 +14 тепло 1019.3 1013.5
05 21.04 В 1 50 км 10/10
[]
+13.6 +6.7 63 +14 +14 тепло 1018.9 1013.1
06 21.04 В 2
{3}
45 км 9/0
[]
+13.8 +7.1 64 +14 +14 тепло 1018.8 1013.0 +13.4 +22.9 0.0 0
07 21.04 В 2 50 км 9/9
[]
+14.7 +7.0 60 +15 +15 тепло 1018.7 1012.9
08 21.04 В 2 50 км 10/10
[]
+14.9 +7.0 59 +15 +15 тепло 1018.6 1012.8
09 21.04 В 3
{7}
45 км 9/9 1500 м
[]
+14.9 +7.7 62 +14 +15 тепло 1018.3 1012.5 0

 

Местоположение метеостанции Бордо (Франция): широта 44.83 долгота -0.68 высота над уровнем моря 61 м.

В архиве по умолчанию представлена погода в Бордо за последнюю неделю. Архивные данные за месяц целиком и за предыдущие месяцы, начиная с января 2011 года, Вы можете получить, выбрав интересующий диапазон дат из раскрывающегося списка и нажав кнопку "Ввод!".


*Определитесь, кто Вы:
робот инопланетянин человек

Внимание! Время в таблицах - всемирное. Для получения местного времени необходимо прибавить поправку, которая равна 1 ч.

Смотрите также архив погоды в соседних городах и на ближайших метеорологических станциях:

Погода в Казо (Франция) (49 км)
Погода в Леж-Кап-Ферре (Франция) (50 км)
Погода в Бискарроссе (Франция) (63 км)
Погода в Бержераке (Франция) (95 км)
Погода в Коньяке (Франция) (98 км)
Погода в Мон-де-Марсане (Франция) (102 км)
Погода в Ажане (Франция) (125 км)
Погода в Пегирё (Франция) (125 км)
Погода в Даксе (Франция) (132 км)
Погода в Шассироне (Франция) (147 км)

Пояснения к столбцам:

Ветер - указаны скорость ветра в м/с - средняя за 10 мин, порывы в срок и между сроками (в фигурных скобках) и направление, откуда дует ветер: С - северный, СВ - северо-восточный, В - восточный, ЮВ - юго-восточный, Ю - южный, ЮЗ - юго-западный, З - западный, СЗ - северо-западный.
Видимость - горизонтальная дальность видимости в метрах или километрах. При видимости от 1 до 10 км при отсутствии осадков обычно наблюдается дымка, при ухудшении видимости до 1 км и менее - туман. В сухую погоду видимость может ухудшаться дымом, пылью или мглою.
Явления - указаны атмосферные явления, наблюдавшиеся в срок или в последний час перед сроком; фигурными скобками обозначены явления, наблюдавшиеся между сроками (за 1-3 часа до срока); квадратными скобками обозначены град или гололедные отложения с указанием их диаметра в мм.
Облачность - указаны через наклонную черту общая и нижняя облачность в баллах и высота нижней границы облаков в метрах; квадратными скобками обозначены формы облаков: Ci - перистые, Cs - перисто-слоистые, Cc - перисто-кучевые, Ac - высококучевые, As - высокослоистые, Sc - слоисто-кучевые, Ns - слоисто-дождевые, Cu - кучевые, Cb - кучево-дождевые. Подробнее классификацию облаков см. в Атласе облаков (PDF).
T - Температура воздуха - температура, измеренная на высоте 2 м над землей.
Td - Температура точки росы - температура, при понижении до которой содержащийся в воздухе водяной пар достигнет насыщения.
f - Относительная влажность воздуха - влажноcть воздуха, измеренная на высоте 2 м над землей.
Te - Эффективная температура - температура, которую ощущает одетый по сезону человек в тени. Характеристика душности погоды. При расчете учитывается влияние влажности воздуха и скорости ветра на теплоощущения человека.
Tes - Эффективная температура на солнце - температура, которую ощущает человек, с поправкой на солнечный нагрев. Характеристика знойности погоды. Зависит от высоты солнца над горизонтом, облачности и скорости ветра. Ночью, в пасмурную погоду, а также при ветре 12 м/с и более поправка равна нулю.
P - Атмосферное давление - приведенное к уровню моря атмосферное давление.
Po - Атмосферное давление - измеренное на уровне метеостанции атмосферное давление.
Tmin - Минимальная температура - минимум температуры воздуха на высоте 2 м над землей.
Tmax - Максимальная температура - максимум температуры воздуха на высоте 2 м над землей.
R - Количество осадков - Количество выпавших осадков за период времени, мм. При наведении курсора мыши на число - период времени, за который выпало указанное количество осадков.
R24 - Количество осадков - Количество выпавших осадков за 24 часа, мм.
S - Снежный покров - Высота снежного покрова, см. При наведении курсора мыши на число - состояние снежного покрова и степень покрытия местности в баллах.